SCP
0 0 0 0 0 0 0 0 0 0 0 0 0 0 0 0 0 0 0 0 0 0 0 0 0 0 0 0 0 0 0 0 0 0 0 0 0 0 0 0 0 0 0 0
0 0 0 0 0 0 0 0 0 0 0 0 0 0 0 0 0 0 0 0 0 0 0 0 0 0 0 0 0 0 0 0 0 0 0 0 0 0 0 0 0 0 0 0
0 0 0 0 0 0 0 0 0 0 0 0 0 0 0 0 0 0 0 0 0 0 0 0 0 0 0 0 0 0 0 0 0 0 0 0 0 0 0 0 0 0 0 0
0 0 0 0 0 0 0 0 0 0 0 0 0 0 0 0 0 0 0 0 0 0 0 0 0 0 0 0 0 0 0 0 0 0 0 0 0 0 0 0 0 0 0 0
0 0 0 0 0 0 0 0 0 0 0 0 0 0 0 0 0 0 0 0 0 0 0 0 0 0 0 0 0 0 0 0 0 0 0 0 0 0 0 0 0 0 0 0
0 0 0 0 0 0 0 0 0 0 0 0 0 0 0 0 0 0 0 0 0 0 0 0 0 0 0 0 0 0 0 0 0 0 0 0 0 0 0 0 0 0 0 0
0 0 0 0 0 0 0 0 0 0 0 0 0 0 0 0 0 0 0 0 0 0 0 0 0 0 0 0 0 0 0 0 0 0 0 0 0 0 0 0 0 0 0 0
0 0 0 0 0 0 0 0 0 0 0 0 0 0 0 0 0 0 0 0 0 0 0 0 0 0 0 0 0 0 0 0 0 0 0 0 0 0 0 0 0 0 0 0
0 0 0 0 0 0 0 0 0 0 0 0 0 0 0 0 0 0 0 0 0 0 0 0 0 0 0 0 0 0 0 0 0 0 0 0 0 0 0 0 0 0 0 0
0 0 0 0 0 0 0 0 0 0 0 0 0 0 0 0 0 0 0 0 0 0 0 0 0 0 0 0 0 0 0 0 0 0 0 0 0 0 0 0 0 0 0 0
0 0 0 0 0 0 0 0 0 0 0 0 0 0 0 0 0 0 0 0 0 0 0 0 0 0 0 0 0 0 0 0 0 0 0 0 0 0 0 0 0 0 0 0
0 0 0 0 0 0 0 0 0 0 0 0 0 0 0 0 0 0 0 0 0 0 0 0 0 0 0 0 0 0 0 0 0 0 0 0 0 0 0 0 0 0 0 0
0 0 0 0 0 0 0 0 0 0 0 0 0 0 0 0 0 0 0 0 0 0 0 0 0 0 0 0 0 0 0 0 0 0 0 0 0 0 0 0 0 0 0 0
0 0 0 0 0 0 0 0 0 0 0 0 0 0 0 0 0 0 0 0 0 0 0 0 0 0 0 0 0 0 0 0 0 0 0 0 0 0 0 0 0 0 0 0
0 0 0 0 0 0 0 0 0 0 0 0 0 0 0 0 0 0 0 0 0 0 0 0 0 0 0 0 0 0 0 0 0 0 0 0 0 0 0 0 0 0 0 0
0 0 0 0 0 0 0 0 0 0 0 0 0 0 0 0 0 0 0 0 0 0 0 0 0 0 0 0 0 0 0 0 0 0 0 0 0 0 0 0 0 0 0 0
0 0 0 0 0 0 0 0 0 0 0 0 0 0 0 0 0 0 0 0 0 0 0 0 0 0 0 0 0 0 0 0 0 0 0 0 0 0 0 0 0 0 0 0
0 0 0 0 0 0 0 0 0 0 0 0 0 0 0 0 0 0 0 0 0 0 0 0 0 0 0 0 0 0 0 0 0 0 0 0 0 0 0 0 0 0 0 0
0 0 0 0 0 0 0 0 0 0 0 0 0 0 0 0 0 0 0 0 0 0 0 0 0 0 0 0 0 0 0 0 0 0 0 0 0 0 0 0 0 0 0 0
0 0 0 0 0 0 0 0 0 0 0 0 0 0 0 0 0 0 0 0 0 0 0 0 0 0 0 0 0 0 0 0 0 0 0 0 0 0 0 0 0 0 0 0
0 0 0 0 0 0 0 0 0 0 0 0 0 0 0 0 0 0 0 0 0 0 0 0 0 0 0 0 0 0 0 0 0 0 0 0 0 0 0 0 0 0 0 0
0 0 0 0 0 0 0 0 0 0 0 0 0 0 0 0 0 0 0 0 0 0 0 0 0 0 0 0 0 0 0 0 0 0 0 0 0 0 0 0 0 0 0 0
0 0 0 0 0 0 0 0 0 0 0 0 0 0 0 0 0 0 0 0 0 0 0 0 0 0 0 0 0 0 0 0 0 0 0 0 0 0 0 0 0 0 0 0
0 0 0 0 0 0 0 0 0 0 0 0 0 0 0 0 0 0 0 0 0 0 0 0 0 0 0 0 0 0 0 0 0 0 0 0 0 0 0 0 0 0 0 0
0 0 0 0 0 0 0 0 0 0 0 0 0 0 0 0 0 0 0 0 0 0 0 0 0 0 0 0 0 0 0 0 0 0 0 0 0 0 0 0 0 0 0 0
0 0 0 0 0 0 0 0 0 0 0 0 0 0 0 0 0 0 0 0 0 0 0 0 0 0 0 0 0 0 0 0 0 0 0 0 0 0 0 0 0 0 0 0
0 0 0 0 0 0 0 0 0 0 0 0 0 0 0 0 0 0 0 0 0 0 0 0 0 0 0 0 0 0 0 0 0 0 0 0 0 0 0 0 0 0 0 0
Wind_Speed
6 6 5 7 8 8 8 9 8 7 6 8 10 10 9 7 7 7 7 7 8 8 7 7 6 6 5 5 5 5 5 5 5 5 4 3 3 3 2 2 2 2 2 3
3 3 4 6 9 10 10 8 8 5 7 8 6 5 5 7 8 8 8 9 9 9 8 8 7 7 6 6 6 5 6 6 5 5 4 4 4 3 3 3 3 3 3 4
4 5 2 6 10 12 9 8 10 11 10 4 5 8 9 8 8 8 8 8 9 9 9 8 8 8 8 8 6 6 6 6 5 5 5 5 4 4 4 4 3 3 4 4
2 2 6 11 7 9 12 11 10 8 8 11 10 9 7 7 8 7 7 7 7 7 7 6 6 6 6 5 5 6 5 5 6 6 6 5 4 5 5 4 4 4 5 5
3 3 8 10 8 7 10 10 10 10 9 9 6 5 1 5 6 7 6 6 6 6 5 5 5 5 4 4 4 4 4 6 6 6 6 5 6 6 5 4 4 4 5 5
4 3 7 10 9 4 6 5 6 11 12 9 9 5 6 5 6 6 5 5 5 4 4 4 3 5 5 3 2 3 5 6 5 5 6 6 7 6 4 4 5 5 5 5
5 5 10 11 7 4 6 10 5 10 11 13 11 9 7 7 6 6 5 5 6 6 4 3 4 5 5 3 1 3 3 3 3 4 5 6 5 4 4 4 4 5 6 6
6 5 11 8 3 7 9 4 3 8 9 11 8 6 8 8 8 7 6 5 6 6 4 2 3 5 5 2 2 1 0 1 2 3 3 3 4 4 4 4 4 5 5 6
11 11 10 6 9 7 5 4 5 7 7 10 10 9 8 8 8 7 6 6 6 7 6 4 4 5 5 2 2 2 3 2 3 3 3 3 3 4 3 3 3 4 4 5
4 9 8 7 6 5 6 6 6 7 10 12 11 10 9 9 7 7 6 6 6 8 8 5 4 5 4 2 3 4 4 3 3 3 4 4 3 2 2 3 3 4 4 5
5 8 7 6 6 6 5 5 6 7 8 12 14 11 10 9 9 7 6 5 7 8 8 6 5 5 4 4 4 5 4 4 4 4 4 4 4 3 3 3 3 4 4 4
7 8 5 9 9 7 7 8 9 10 8 9 12 13 11 10 8 8 8 7 8 8 8 6 6 5 5 4 5 5 4 4 3 3 4 4 4 5 5 5 7 6 5 3
9 8 8 10 10 9 11 11 10 10 11 11 9 11 12 9 8 9 9 10 10 9 8 7 6 5 4 4 5 5 4 3 3 3 4 4 4 4 5 7 9 10 12 12
9 7 8 8 9 10 11 11 9 8 8 10 10 10 11 9 10 11 10 9 10 10 8 7 7 5 3 4 5 5 4 5 5 3 3 4 4 4 4 4 6 6 8 14
15 12 12 10 9 7 7 7 8 8 9 9 10 13 14 14 13 11 10 10 10 9 8 7 6 4 3 5 6 5 4 3 3 3 4 4 4 4 5 5 5 5 6 9
14 12 10 9 10 9 8 10 11 12 12 11 12 13 13 13 12 11 10 11 11 9 7 7 6 4 4 5 5 4 4 8 6 4 4 4 4 5 5 5 5 6 7 7
10 10 8 8 9 10 12 13 15 15 14 14 14 14 14 14 13 11 9 8 9 8 7 7 5 4 4 5 5 3 3 4 8 5 3 3 3 4 4 4 4 4 5 7
9 10 10 10 10 11 12 11 11 13 14 13 15 16 16 16 15 13 11 10 9 7 6 6 6 5 5 4 4 3 3 2 2 2 2 3 3 3 3 3 3 4 3 4
13 10 9 9 10 11 12 12 13 13 13 16 18 17 15 14 14 13 12 11 11 8 5 5 10 6 4 4 5 3 3 2 2 2 2 2 3 2 2 2 2 2 2 2
17 14 10 8 7 7 9 10 12 13 14 17 17 15 14 14 14 14 12 9 7 6 6 7 7 5 4 3 5 2 2 2 1 1 1 1 1 2 2 2 2 2 2 2
19 17 12 7 4 2 5 8 12 14 14 16 18 17 15 14 14 13 11 7 5 6 7 10 6 4 3 2 4 2 1 1 0 0 0 1 1 2 2 2 2 2 2 2
16 15 12 6 3 2 2 5 9 12 13 12 13 14 15 13 12 10 9 7 8 10 7 5 4 5 5 4 2 1 1 0 0 0 1 1 1 2 2 3 3 3 3 3
13 12 9 5 3 3 5 5 7 10 12 13 14 14 13 11 10 10 7 5 6 11 7 5 7 8 6 3 1 1 0 0 1 1 1 1 2 2 2 3 3 3 3 4
12 11 8 4 3 5 5 5 6 6 8 8 9 11 12 9 6 5 6 12 13 11 6 7 10 8 5 2 2 1 1 1 1 2 2 2 2 2 2 3 3 3 3 4
10 9 6 1 2 3 4 6 7 8 8 6 7 8 7 7 7 6 6 8 12 11 5 7 10 7 4 2 2 2 2 2 2 2 1 1 2 2 2 2 3 3 3 4
8 7 5 4 3 4 4 5 5 5 6 6 5 5 5 5 7 7 6 7 9 9 6 4 3 3 3 3 3 3 2 2 1 1 1 2 2 2 2 3 4 4 4 4
7 5 3 1 1 3 4 5 6 6 6 7 5 5 6 6 6 7 7 6 5 5 4 4 3 3 3 3 3 2 2 1 1 1 1 1 2 2 3 4 3 4 4 5
Wind_Direction
224 239 210 214 217 194 183 184 187 224 217 222 214 207 206 201 193 188 194 193 192 195 202 205 207 209 206 208 206 196 191 200 211 213 207 200 202 215 229 249 264 272 285 298
281 270 239 239 230 210 207 197 206 220 246 239 210 182 188 192 185 189 199 201 200 199 199 204 208 208 205 210 210 198 199 211 213 206 206 210 214 217 231 255 271 276 276 281
270 293 343 260 223 204 208 206 191 212 226 187 174 191 194 193 188 193 200 199 197 197 200 204 207 203 204 208 203 200 210 217 212 206 212 222 224 217 232 245 253 268 271 273
234 346 244 245 235 198 204 217 198 197 192 180 189 195 192 181 177 189 189 184 190 194 199 206 206 205 207 202 198 204 215 221 216 208 217 225 227 232 238 237 243 253 261 267
157 233 277 287 269 194 189 234 207 187 184 184 154 108 225 200 173 175 176 175 181 183 184 187 192 190 177 188 190 200 221 226 220 210 214 222 230 238 236 233 244 247 253 260
143 190 248 256 267 204 129 253 220 177 172 163 135 149 230 206 162 157 153 155 156 154 144 150 167 149 140 155 167 217 232 229 221 208 210 221 230 234 231 226 240 251 260 258
171 212 261 257 271 122 148 236 219 178 171 164 175 190 188 162 155 152 148 149 140 130 125 145 151 132 125 121 212 249 242 232 226 222 224 230 236 235 234 237 248 256 265 270
160 194 253 253 182 186 211 230 193 181 175 169 173 150 145 152 153 150 143 140 133 119 108 94 114 118 106 71 306 307 358 327 286 274 265 259 249 255 249 241 250 259 265 278
187 211 231 223 208 220 189 188 188 171 169 151 145 152 155 155 152 150 145 137 128 119 103 76 75 98 97 25 360 46 54 19 337 327 317 307 282 275 273 254 248 259 257 265
264 272 268 252 227 204 189 187 181 166 157 152 155 159 157 155 154 149 145 140 130 120 111 93 76 78 79 41 47 68 56 26 8 2 347 338 325 298 281 270 260 261 260 262
271 284 311 295 249 220 195 166 153 156 165 164 157 160 162 161 159 153 143 136 130 126 121 116 95 75 56 45 60 65 52 29 13 4 351 339 333 314 301 276 259 253 258 251
237 248 234 256 254 230 199 189 175 165 166 171 166 164 161 161 157 149 142 133 127 124 122 116 100 78 52 46 65 71 54 28 13 1 352 348 343 338 336 338 344 350 342 319
229 252 237 247 258 230 210 201 185 176 170 171 170 162 157 153 151 144 139 137 135 131 126 118 101 79 53 49 65 69 61 36 18 10 4 359 360 2 353 351 7 18 13 9
257 263 266 257 249 233 214 200 179 171 169 164 158 152 148 141 145 145 145 140 133 127 123 116 101 83 57 61 67 63 54 45 43 22 13 9 8 8 12 14 12 5 3 13
262 252 247 252 252 235 203 170 161 165 160 155 155 155 154 152 153 148 140 134 128 123 122 116 106 93 66 71 72 63 56 47 43 32 25 21 19 23 27 28 29 20 14 14
266 262 252 241 229 213 186 176 177 179 170 164 163 163 157 148 142 139 139 139 135 134 132 123 119 115 90 80 75 63 52 60 66 49 33 29 28 32 32 31 32 31 27 16
277 269 255 240 225 211 199 193 189 183 175 169 165 153 143 139 138 140 140 136 133 133 133 130 131 119 96 88 85 75 61 54 58 53 41 38 37 36 36 37 36 33 26 22
283 261 245 228 217 214 212 204 189 177 173 166 152 149 151 153 153 150 144 134 125 121 130 136 132 116 99 91 90 83 76 65 56 55 44 41 40 37 39 40 36 34 14 16
319 300 279 255 231 215 208 200 188 177 164 156 157 159 158 153 149 147 144 142 140 142 154 149 134 117 109 93 98 85 80 71 59 42 35 31 32 20 21 21 18 13 8 9
336 324 308 287 262 224 207 192 176 167 163 159 154 151 151 151 149 148 145 147 157 157 156 144 129 124 124 99 95 91 83 79 73 43 28 23 7 352 347 342 339 335 334 332
338 332 323 311 294 235 185 170 164 162 160 158 156 156 153 150 150 148 146 147 166 155 151 146 138 142 145 129 94 92 80 78 84 76 7 346 335 330 323 318 314 308 303 300
333 333 330 333 5 41 93 136 145 145 145 147 146 144 144 146 146 144 148 153 160 157 146 142 150 166 162 134 116 98 63 28 233 230 252 270 289 301 302 304 301 298 296 292
328 328 327 337 25 66 73 92 121 135 141 145 148 149 149 148 150 149 152 158 153 157 149 158 177 177 161 140 147 144 302 280 249 243 252 266 278 287 296 304 301 299 298 296
321 323 320 326 63 87 88 87 96 108 118 126 135 140 140 136 133 141 141 157 162 156 156 180 189 190 176 164 180 197 233 249 248 252 264 279 288 293 295 299 302 302 301 305
312 310 302 271 125 120 121 112 104 105 108 112 121 128 134 139 141 146 146 155 164 159 166 192 198 197 181 182 201 213 225 232 228 225 238 265 279 286 290 294 296 297 298 298
304 299 282 243 195 159 146 133 127 129 127 125 124 128 127 128 134 140 146 156 165 169 173 189 203 202 188 198 207 214 221 243 269 266 257 270 280 288 291 294 298 294 290 291
297 295 291 259 180 158 148 144 142 143 143 141 140 143 141 140 142 148 151 157 164 171 179 189 193 193 193 197 202 207 208 217 230 240 253 266 275 280 286 294 294 293 295 297